Georgetown, SC

12:55 AM EDT on May 26, 2017 (GMT -0400)
Georgetown County

Weather History for KGGE - October, 2011

Change the Weather History Date:

Saturday, October 1, 2011

  Actual Average Record
Temperature  
Mean Temperature 61 °F -  
Max Temperature 69 °F 80 °F 84 °F (2012)
Min Temperature 53 °F 60 °F 53 °F (2011)
Degree Days  
Heating Degree Days 4    
Growing Degree Days 11 (Base 50)    
Moisture  
Dew Point 42 °F    
Average Humidity 54    
Maximum Humidity 82    
Minimum Humidity 25    
Precipitation  
Precipitation 0.00 in - - ()
Sea Level Pressure  
Sea Level Pressure 29.88 in    
Wind  
Wind Speed 9 mph (NW)    
Max Wind Speed 16 mph    
Max Gust Speed 24 mph    
Visibility 10 miles    
Events      
Averages and records for this station are not official NWS values.
T = Trace of Precipitation, MM = Missing Value Source: NWS Daily Summary

Daily Weather History Graph

Daily Weather History Graph

Search for Another Location

Airport or City:

Trip Planner

Search our weather history database for the weather conditions in past years. The results will help you decide how hot, cold, wet, or windy it might be!

Date:

Astronomy

Oct. 01, 2011 Rise Set
Actual Time 7:11 AM EDT 7:02 PM EDT
Civil Twilight 6:46 AM EDT 7:26 PM EDT
Nautical Twilight 6:17 AM EDT 7:55 PM EDT
Astronomical Twilight 5:48 AM EDT 8:24 PM EDT
Moon 11:58 AM EDT (10/1) 10:15 PM EDT (10/1)
Length of Visible Light 12h 40m
Length of Day
11h 50m
Waxing Crescent, 24% of the Moon is Illuminated
Oct 1
Waxing Crescent
Oct 3
First Quarter
Oct 11
Full
Oct 19
Last Quarter
Oct 26
New

Hourly Weather History & Observations

Time (EDT) Temp. Dew Point Humidity Pressure Visibility Wind Dir Wind Speed Gust Speed Precip Events Conditions
12:15 AM 64.4 °F 55.4 °F 73% 29.80 in 10.0 mi North 11.5 mph 17.3 mph N/A   Scattered Clouds
12:35 AM 62.6 °F 53.6 °F 72% 29.80 in 10.0 mi North 10.4 mph - N/A   Scattered Clouds
12:55 AM 62.6 °F 53.6 °F 72% 29.80 in 10.0 mi NNW 6.9 mph - N/A   Clear
1:15 AM 60.8 °F 53.6 °F 77% 29.80 in 10.0 mi NNW 5.8 mph - N/A   Clear
1:35 AM 60.8 °F 53.6 °F 77% 29.80 in 10.0 mi NW 5.8 mph - N/A   Clear
1:55 AM 60.8 °F 51.8 °F 72% 29.80 in 10.0 mi NNW 8.1 mph - N/A   Clear
2:15 AM 59.0 °F 50.0 °F 72% 29.81 in 10.0 mi NNW 6.9 mph - N/A   Clear
2:35 AM 59.0 °F 50.0 °F 72% 29.81 in 10.0 mi NNW 6.9 mph - N/A   Clear
2:55 AM 59.0 °F 50.0 °F 72% 29.80 in 10.0 mi NW 6.9 mph - N/A   Clear
3:15 AM 57.2 °F 50.0 °F 77% 29.80 in 10.0 mi NNW 5.8 mph - N/A   Clear
3:35 AM 57.2 °F 50.0 °F 77% 29.80 in 10.0 mi NW 5.8 mph - N/A   Clear
3:55 AM 55.4 °F 50.0 °F 82% 29.81 in 10.0 mi NNW 5.8 mph - N/A   Scattered Clouds
4:15 AM 55.4 °F 48.2 °F 77% 29.81 in 10.0 mi NNW 4.6 mph - N/A   Scattered Clouds
4:35 AM 55.4 °F 48.2 °F 77% 29.81 in 10.0 mi NW 3.5 mph - N/A   Clear
5:35 AM 55.4 °F 46.4 °F 72% 29.83 in 10.0 mi NW 6.9 mph - N/A   Clear
5:55 AM 55.4 °F 46.4 °F 72% 29.84 in 10.0 mi NW 6.9 mph - N/A   Clear
6:15 AM 53.6 °F 46.4 °F 77% 29.84 in 10.0 mi NW 5.8 mph - N/A   Clear
6:35 AM 53.6 °F 46.4 °F 77% 29.85 in 10.0 mi NW 6.9 mph - N/A   Clear
6:55 AM 53.6 °F 46.4 °F 77% 29.85 in 10.0 mi NNW 8.1 mph - N/A   Clear
7:15 AM 53.6 °F 46.4 °F 77% 29.87 in 10.0 mi NNW 9.2 mph - N/A   Clear
7:35 AM 53.6 °F 44.6 °F 72% 29.87 in 10.0 mi NNW 9.2 mph - N/A   Clear
7:55 AM 53.6 °F 44.6 °F 72% 29.87 in 10.0 mi NNW 8.1 mph - N/A   Clear
8:15 AM 55.4 °F 44.6 °F 67% 29.88 in 10.0 mi NNW 9.2 mph - N/A   Clear
8:35 AM 55.4 °F 44.6 °F 67% 29.89 in 10.0 mi NNW 5.8 mph 9.2 mph N/A   Clear
9:15 AM 59.0 °F 42.8 °F 55% 29.90 in 10.0 mi North 10.4 mph 16.1 mph N/A   Clear
9:35 AM 60.8 °F 42.8 °F 52% 29.90 in 10.0 mi NNW 9.2 mph 17.3 mph N/A   Clear
9:55 AM 60.8 °F 42.8 °F 52% 29.91 in 10.0 mi NNW 11.5 mph 17.3 mph N/A   Clear
10:15 AM 62.6 °F 41.0 °F 45% 29.91 in 10.0 mi NNW 12.7 mph 18.4 mph N/A   Clear
10:35 AM 64.4 °F 39.2 °F 40% 29.91 in 10.0 mi NW 12.7 mph 19.6 mph N/A   Clear
10:55 AM 62.6 °F 37.4 °F 39% 29.90 in 10.0 mi North 10.4 mph 18.4 mph N/A   Clear
11:15 AM 64.4 °F 39.2 °F 40% 29.90 in 10.0 mi NNW 13.8 mph 18.4 mph N/A   Clear
11:55 AM 64.4 °F 39.2 °F 40% 29.90 in 10.0 mi NNW 10.4 mph - N/A   Clear
12:15 PM 66.2 °F 39.2 °F 37% 29.91 in 10.0 mi NW 9.2 mph 20.7 mph N/A   Clear
12:35 PM 68.0 °F 39.2 °F 35% 29.90 in 10.0 mi NW 13.8 mph 20.7 mph N/A   Clear
12:55 PM 66.2 °F 37.4 °F 35% 29.90 in 10.0 mi NNW 11.5 mph 17.3 mph N/A   Clear
1:15 PM 68.0 °F 37.4 °F 33% 29.90 in 10.0 mi NW 12.7 mph 17.3 mph N/A   Clear
1:35 PM 68.0 °F 35.6 °F 30% 29.89 in 10.0 mi NW 16.1 mph - N/A   Clear
1:55 PM 68.0 °F 35.6 °F 30% 29.88 in 10.0 mi WNW 11.5 mph 18.4 mph N/A   Clear
2:15 PM 68.0 °F 35.6 °F 30% 29.88 in 10.0 mi NW 10.4 mph 18.4 mph N/A   Clear
2:35 PM 68.0 °F 35.6 °F 30% 29.88 in 10.0 mi West 9.2 mph 18.4 mph N/A   Clear
2:55 PM 69.8 °F 35.6 °F 28% 29.88 in 10.0 mi WNW 13.8 mph 19.6 mph N/A   Clear
3:35 PM 68.0 °F 32.0 °F 26% 29.88 in 10.0 mi WNW 15.0 mph 24.2 mph N/A   Clear
3:55 PM 69.8 °F 32.0 °F 25% 29.88 in 10.0 mi NW 15.0 mph 19.6 mph N/A   Clear
4:15 PM 69.8 °F 33.8 °F 27% 29.88 in 10.0 mi NW 12.7 mph 18.4 mph N/A   Clear
4:35 PM 69.8 °F 33.8 °F 27% 29.88 in 10.0 mi NW 11.5 mph 16.1 mph N/A   Clear
4:55 PM 68.0 °F 33.8 °F 28% 29.89 in 10.0 mi NW 10.4 mph - N/A   Clear
5:15 PM 68.0 °F 33.8 °F 28% 29.90 in 10.0 mi NW 10.4 mph - N/A   Clear
5:35 PM 68.0 °F 33.8 °F 28% 29.90 in 10.0 mi NW 11.5 mph 17.3 mph N/A   Clear
5:55 PM 66.2 °F 33.8 °F 30% 29.91 in 10.0 mi NW 10.4 mph - N/A   Clear
6:15 PM 64.4 °F 35.6 °F 34% 29.92 in 10.0 mi NW 6.9 mph - N/A   Clear
6:35 PM 62.6 °F 37.4 °F 39% 29.93 in 10.0 mi NW 5.8 mph - N/A   Clear
7:15 PM 59.0 °F 39.2 °F 48% 29.94 in 10.0 mi NW 3.5 mph - N/A   Clear
7:35 PM 59.0 °F 41.0 °F 51% 29.95 in 10.0 mi NNW 4.6 mph - N/A   Clear
8:15 PM 55.4 °F 41.0 °F 58% 29.96 in 10.0 mi NW 3.5 mph - N/A   Clear
8:55 PM 55.4 °F 41.0 °F 58% 29.98 in 10.0 mi NW 3.5 mph - N/A   Clear
9:15 PM 53.6 °F 41.0 °F 62% 29.99 in 10.0 mi Calm Calm - N/A   Clear
9:35 PM 53.6 °F 41.0 °F 62% 30.00 in 10.0 mi NW 4.6 mph - N/A   Clear
9:55 PM 53.6 °F 41.0 °F 62% 30.00 in 10.0 mi NW 4.6 mph - N/A   Clear
10:15 PM 53.6 °F 41.0 °F 62% 30.00 in 10.0 mi NW 3.5 mph - N/A   Clear
10:35 PM 53.6 °F 39.2 °F 58% 30.01 in 10.0 mi Calm Calm - N/A   Clear
10:55 PM 51.8 °F 41.0 °F 67% 30.01 in 10.0 mi NW 3.5 mph - N/A   Clear
11:15 PM 51.8 °F 41.0 °F 67% 30.01 in 10.0 mi NW 3.5 mph - N/A   Clear
11:35 PM 51.8 °F 41.0 °F 67% 30.01 in 10.0 mi NW 3.5 mph - N/A   Clear
11:55 PM 50.0 °F 41.0 °F 71% 30.01 in 10.0 mi WNW 3.5 mph - N/A   Clear